This is the latest recevied weather packets stored in our database for station/object NI4CE-11. If no packets are shown the sender has not sent any weather packets the latest 10 day(s).
| Time | Temp. | Humidity | Pressure | Rain* | Wind** | Luminosity | Snow |
|---|---|---|---|---|---|---|---|
| 1777729845 | 28.33° C | 100% | 1011.5 hPa | 0 mm | - | - | - |
| 1777729805 | 28.33° C | 100% | 1011.7 hPa | 0 mm | - | - | - |
| 1777729505 | 28.33° C | 100% | 1011.7 hPa | 0 mm | - | - | - |
| 1777729205 | 28.33° C | 100% | 1011.5 hPa | 0 mm | - | - | - |
| 1777728905 | 26.67° C | 100% | 1011.4 hPa | 0 mm | - | - | - |
| 1777728605 | 27.22° C | 100% | 1011.4 hPa | 0 mm | - | - | - |
| 1777728305 | 27.22° C | 100% | 1011.4 hPa | 0 mm | - | - | - |
| 1777728005 | 26.67° C | 100% | 1011.3 hPa | 0 mm | - | - | - |
| 1777727739 | 26.67° C | 100% | 1011.2 hPa | 0 mm | - | - | - |
| 1777727705 | 26.67° C | 100% | 1011.2 hPa | 0 mm | - | - | - |
| 1777727405 | 26.11° C | 100% | 1011 hPa | 0 mm | - | - | - |
| 1777727105 | 25.56° C | 100% | 1011 hPa | 0 mm | - | - | - |
| 1777726805 | 26.67° C | 100% | 1010.8 hPa | 0 mm | - | - | - |
| 1777726505 | 25.56° C | 100% | 1010.8 hPa | 0 mm | - | - | - |
| 1777726205 | 26.67° C | 100% | 1011 hPa | 0 mm | - | - | - |
| 1777726174 | 25° C | 100% | 1010.8 hPa | 0 mm | - | - | - |
| 1777725905 | 25° C | 100% | 1011 hPa | 0 mm | - | - | - |
| 1777725605 | 25° C | 100% | 1010.8 hPa | 0 mm | - | - | - |
| 1777725536 | 25° C | 100% | 1010.9 hPa | 0 mm | - | - | - |
| 1777725401 | 23.89° C | 100% | 1010.8 hPa | 0 mm | - | - | - |
| 1777725305 | 25° C | 100% | 1010.9 hPa | 0 mm | - | - | - |
| 1777725005 | 23.89° C | 100% | 1010.8 hPa | 0 mm | - | - | - |
| 1777724705 | 24.44° C | 100% | 1010.9 hPa | 0 mm | - | - | - |
| 1777724408 | 22.78° C | 100% | 1010.7 hPa | 0 mm | - | - | - |
| 1777724405 | 24.44° C | 100% | 1010.9 hPa | 0 mm | - | - | - |
* Rain latest hour (hover to see other rain measurements)
** Current wind speed in m/s (hover to see current wind gust speed)